Wind_Speed
9 10 12 12 13 13 15 16 16 15 14 13 12 12 11 10 10 9 9 9 10 10 10 10 10 10 10 9 9 9 9 9 9 9 9 9 8 7 7 7 7 7 7 7 6 5 5 5 4 4 4 4 4 4 3 3 4 4 4 4 5 5 6 6 7 7 8 7 7 8 8 7 7 7 7 7 6 6 6 6 5 5 4 3 3
9 10 11 10 10 11 12 13 14 14 13 12 11 11 12 10 11 10 9 9 9 9 9 9 9 9 9 9 9 9 9 9 8 8 9 9 9 8 8 8 8 7 7 7 6 6 5 5 4 4 3 3 3 3 2 3 3 3 4 4 5 5 5 6 7 7 7 7 8 8 7 7 7 7 7 6 6 6 5 5 5 6 5 5 5
9 9 9 8 9 9 10 12 12 12 11 10 9 10 10 10 10 9 9 9 8 8 9 9 9 9 8 9 9 9 9 8 8 8 8 8 9 8 8 7 7 7 6 6 5 5 5 5 4 3 3 2 1 1 1 2 2 3 3 4 5 5 6 6 7 6 7 8 8 7 7 6 6 7 6 6 6 6 5 6 6 6 6 6 6
8 8 8 7 8 8 9 10 10 11 11 10 9 9 10 10 9 7 8 9 8 8 8 8 9 8 8 8 8 8 7 7 8 8 7 7 8 8 6 6 6 5 5 5 4 4 3 3 3 2 2 1 1 0 1 2 2 3 4 4 5 6 6 6 7 7 7 8 8 7 7 6 6 6 6 6 6 6 6 7 7 7 7 7 8
7 7 6 6 7 8 9 9 9 10 10 9 8 7 8 8 7 7 8 8 8 8 8 8 8 7 8 8 8 7 7 7 7 7 7 7 7 7 7 6 4 4 4 4 3 3 2 1 1 1 1 1 1 1 1 2 2 3 4 4 5 6 5 6 7 7 7 8 7 6 7 6 6 7 7 7 7 7 7 7 7 8 8 8 9
6 5 5 6 6 7 8 8 8 8 8 8 8 7 7 7 7 7 7 8 7 7 7 7 7 7 7 8 7 7 7 6 6 6 6 6 6 6 7 6 4 3 4 4 4 3 2 1 1 1 1 2 2 2 2 3 3 4 5 5 5 5 5 6 6 7 7 7 7 7 7 6 7 7 8 8 8 8 8 8 8 8 9 9 10
5 4 4 6 6 6 7 8 7 7 7 6 6 6 7 7 6 6 6 8 7 6 7 7 7 7 7 7 7 7 7 6 6 6 6 6 6 5 5 6 5 5 4 3 4 4 4 2 2 1 1 2 2 3 3 4 4 4 5 5 5 5 5 5 5 6 6 6 6 6 6 7 7 8 8 8 8 9 9 9 9 9 10 10 10
5 4 3 5 6 6 6 6 5 6 6 4 4 6 6 6 6 6 6 7 8 7 7 6 7 7 6 6 6 6 6 6 6 5 5 5 5 6 6 5 5 5 6 5 3 4 6 4 3 3 2 2 2 2 2 3 3 4 4 4 4 4 4 4 4 5 5 5 5 6 6 7 7 8 9 9 9 10 10 10 10 10 11 11 11
5 3 3 4 6 6 6 6 4 5 5 3 4 5 5 6 5 5 4 4 7 7 7 6 6 6 6 6 6 5 5 5 5 5 5 4 4 5 6 6 6 6 7 6 6 3 5 6 5 5 5 4 3 2 2 2 2 2 2 3 2 3 3 3 3 4 4 4 5 5 6 7 7 8 9 9 10 10 10 11 11 11 11 12 12
4 3 3 4 5 6 5 4 4 4 3 3 5 4 5 5 5 5 3 4 6 6 6 6 5 5 5 6 5 4 5 5 4 4 4 4 4 5 5 5 6 5 5 6 6 4 1 5 6 6 7 5 3 3 2 2 2 2 2 2 2 2 2 2 3 3 4 4 5 5 6 7 7 8 9 9 9 10 10 11 12 12 12 13 13
5 4 3 4 4 5 4 3 3 3 2 3 4 4 4 5 4 4 3 4 4 5 5 4 4 5 4 5 5 4 5 4 5 4 4 5 4 4 5 5 6 6 5 5 6 6 4 2 2 2 4 5 5 4 3 2 2 2 2 2 2 3 3 3 4 4 4 5 5 6 6 7 7 8 9 9 10 11 11 12 12 13 13 13 13
5 4 3 3 4 4 3 3 3 3 2 3 4 4 4 4 4 4 3 3 3 3 4 3 4 5 3 5 5 4 4 3 4 5 5 5 3 3 5 6 6 6 5 5 5 6 5 3 2 2 1 3 5 5 4 3 3 3 3 3 3 3 4 4 4 5 5 5 5 6 7 7 8 9 10 11 11 12 12 13 14 14 14 14 14
6 5 4 3 4 4 3 2 3 3 3 3 4 4 4 3 3 3 2 2 2 2 4 3 4 4 3 5 5 5 4 3 4 5 6 6 4 3 5 7 7 6 6 5 5 5 5 3 3 3 2 2 4 5 5 4 5 5 4 3 3 3 4 4 4 5 5 5 6 7 8 8 9 10 11 12 13 13 14 14 15 15 15 15 15
6 5 5 4 4 4 3 3 3 3 3 3 4 3 3 3 2 2 2 2 2 3 3 1 2 4 3 5 5 4 3 3 4 5 5 6 6 5 5 7 7 7 7 6 4 5 5 4 3 2 2 1 2 3 5 4 5 7 5 3 3 3 3 4 4 5 5 6 7 8 9 10 11 11 12 13 14 14 15 15 16 16 16 16 16
6 6 5 5 4 4 4 3 3 3 3 3 3 3 3 2 2 1 1 2 2 3 2 1 3 5 4 3 4 4 1 2 3 5 5 4 6 6 5 7 7 5 5 6 5 5 5 4 3 2 2 1 1 2 3 2 4 6 4 3 4 4 4 4 5 6 7 8 9 10 11 11 12 13 14 14 15 15 16 16 16 17 17 17 17
7 7 5 5 4 4 4 4 3 3 3 2 3 3 3 2 2 1 1 1 2 4 4 3 4 4 2 2 4 4 2 3 4 3 3 5 5 5 4 7 8 4 4 5 6 4 4 4 3 2 2 1 1 2 2 3 5 6 3 3 4 4 5 6 7 8 9 10 11 12 12 13 14 14 15 15 16 16 17 17 17 18 18 18 18
8 7 6 5 5 3 4 4 4 3 3 3 2 2 3 2 2 1 0 1 1 3 3 3 4 3 1 2 2 3 1 2 4 1 2 4 7 6 4 6 9 3 2 5 5 3 5 5 4 3 3 2 2 2 2 3 4 5 4 4 5 6 6 7 9 10 11 12 13 13 14 14 14 14 15 16 16 17 17 18 18 18 18 18 18
8 7 6 6 5 4 4 4 4 4 2 2 2 2 2 2 2 1 0 1 1 1 2 2 4 3 2 3 2 3 2 1 2 1 4 1 4 7 5 6 8 6 4 5 5 4 4 5 4 4 4 3 2 3 3 3 3 4 5 6 7 7 8 9 11 12 13 14 14 14 14 14 14 15 16 16 17 17 17 17 17 17 17 17 17
8 7 6 6 5 5 5 4 4 4 2 2 2 3 3 3 3 1 1 1 1 2 1 1 3 2 3 4 2 2 3 1 2 1 1 3 2 5 8 7 8 7 7 8 7 5 3 3 4 4 4 2 2 3 3 3 3 4 5 7 8 8 10 11 12 13 14 14 14 14 14 14 15 15 15 16 16 16 16 16 16 16 16 16 16
7 8 6 6 6 5 5 4 3 3 3 3 2 1 4 4 3 2 1 1 1 1 2 2 1 2 2 2 2 2 2 2 3 1 1 1 2 2 6 6 7 5 4 6 6 6 4 2 2 4 4 2 2 2 2 2 3 4 7 9 10 10 11 12 13 14 14 14 14 14 14 15 15 15 15 15 15 15 16 16 16 16 15 14 14
6 8 7 6 6 5 5 4 3 4 4 4 3 2 3 3 2 3 2 2 2 2 2 3 4 0 2 1 1 2 3 2 4 2 1 1 1 3 4 3 5 4 2 4 5 5 6 4 2 4 4 3 2 2 2 2 2 4 7 9 9 9 10 12 13 13 14 14 14 14 14 14 14 14 14 14 15 15 15 15 14 13 13 12 12
8 8 8 7 7 6 5 5 4 4 4 2 3 3 3 3 3 3 3 3 2 3 3 2 4 3 2 2 1 1 1 1 3 2 2 1 2 2 6 4 4 4 2 2 3 4 4 3 4 5 3 2 1 1 0 1 1 2 6 8 8 8 10 11 12 13 13 13 13 13 13 13 13 13 14 14 14 13 13 13 12 12 12 12 12
9 9 9 8 7 7 6 5 5 5 3 2 3 4 4 4 4 4 3 3 2 3 3 3 3 3 2 3 3 3 2 2 1 0 1 2 4 3 3 3 2 4 4 1 1 2 2 3 4 4 2 2 1 0 0 3 2 4 7 7 7 8 10 11 12 12 13 13 13 12 12 12 13 14 14 13 12 12 13 13 13 13 13 13 12
8 9 9 9 8 8 6 6 5 5 4 4 4 4 3 4 4 4 4 3 3 3 3 3 3 4 4 4 5 4 3 3 2 2 2 1 2 5 1 1 2 3 5 5 4 3 3 2 3 3 2 1 1 1 1 4 4 8 10 7 7 8 11 13 13 13 13 12 11 11 11 13 14 14 13 12 13 13 14 14 14 13 13 13 12
9 8 9 9 9 9 8 6 6 5 4 4 3 3 3 4 5 4 4 4 4 3 3 3 3 4 4 4 5 4 3 4 3 3 3 1 2 5 3 1 5 3 4 4 4 4 4 3 3 2 1 1 1 1 2 3 5 8 10 6 7 9 13 15 14 13 13 11 10 11 12 14 14 13 12 13 14 15 15 15 13 13 12 12 13
9 8 8 9 9 9 9 8 6 6 6 5 4 4 5 4 4 5 5 4 4 3 3 4 3 4 4 3 4 4 3 3 3 3 3 3 4 3 3 5 6 3 4 3 5 4 4 4 4 2 1 2 1 1 3 2 4 8 10 4 6 10 13 16 15 13 11 9 10 12 13 14 13 12 12 13 15 15 15 13 12 12 12 13 14
9 9 8 9 9 9 9 9 8 7 7 7 6 6 6 5 4 5 5 4 3 3 4 4 4 4 4 4 4 4 3 3 3 3 3 3 2 1 1 3 6 2 4 5 6 6 3 5 5 2 1 2 2 3 4 3 4 8 10 4 7 10 12 15 15 12 9 9 11 13 13 13 12 11 12 13 15 15 14 12 11 12 12 14 16
9 10 9 9 9 9 9 9 9 8 8 8 7 7 8 7 5 5 4 3 3 4 4 4 4 5 4 4 4 4 3 2 3 2 1 1 1 1 2 2 3 3 1 3 5 5 5 5 6 3 2 2 2 4 4 3 5 7 9 5 7 9 11 14 14 11 9 10 12 12 12 13 12 11 12 13 14 14 13 12 11 12 14 16 18
10 10 10 10 10 9 9 9 9 9 9 9 9 8 8 7 6 6 5 5 4 4 5 4 4 5 5 5 4 4 3 2 3 3 0 1 2 2 3 2 2 3 2 2 2 3 5 6 5 5 3 3 3 4 4 4 7 7 7 5 5 7 11 12 12 11 10 11 13 12 12 13 11 10 11 11 13 13 12 12 12 13 15 17 18
11 10 11 11 11 10 10 9 9 10 9 9 9 9 8 7 7 8 7 7 6 5 5 5 4 4 4 3 4 4 3 3 4 3 2 2 3 4 4 3 3 4 3 1 3 5 5 6 5 2 2 2 4 5 4 5 9 8 7 6 5 8 12 11 9 10 11 11 13 13 12 12 11 10 10 10 11 12 11 12 13 14 15 17 17
13 12 11 12 12 11 11 10 10 10 10 9 9 9 9 8 8 8 8 9 9 7 7 7 5 5 4 4 3 3 4 4 4 4 2 3 4 5 5 5 5 5 4 3 4 5 5 6 7 4 3 4 3 5 5 5 9 10 8 6 7 9 12 10 9 9 9 11 14 13 12 11 11 9 9 10 10 11 11 13 14 14 14 16 17
14 14 13 13 13 13 12 11 11 11 11 11 10 10 10 9 9 8 8 9 10 9 8 7 6 5 5 5 5 4 4 4 5 5 4 5 5 5 5 6 6 6 6 6 5 6 7 8 9 8 7 6 4 5 6 7 9 10 8 6 7 10 10 9 10 9 8 10 13 14 12 11 10 9 9 9 10 10 11 13 14 14 14 16 17
16 15 15 14 14 13 13 12 12 12 11 11 11 11 11 10 10 9 8 8 9 9 8 8 8 6 5 6 6 6 6 6 6 6 6 6 7 7 7 7 7 8 7 7 7 7 8 9 9 9 8 7 6 6 6 7 8 7 8 8 8 9 7 7 10 10 8 9 12 14 13 10 10 9 9 9 9 10 11 12 14 14 14 15 17
17 16 16 16 15 14 14 14 13 12 12 12 12 12 11 11 11 10 9 9 9 9 8 9 9 8 6 7 8 8 8 8 8 8 7 8 7 7 8 8 8 9 8 8 8 8 8 8 8 9 9 9 9 8 7 8 8 8 9 9 8 8 7 6 9 9 9 9 10 14 13 10 10 9 8 9 9 10 11 12 13 14 14 15 16
17 17 17 16 16 16 15 15 15 14 14 14 13 13 12 12 12 12 11 10 10 10 10 10 10 9 9 9 9 9 9 9 9 9 8 8 8 8 8 8 8 9 8 9 9 9 10 9 8 9 10 10 9 8 8 9 9 9 9 9 9 9 8 8 9 10 11 10 10 13 13 10 10 10 9 9 9 10 10 11 13 14 14 14 15
18 18 18 17 17 17 17 16 16 16 15 15 15 14 14 14 13 13 12 11 11 11 11 11 10 10 10 10 10 10 10 10 9 10 9 9 9 9 9 8 9 9 9 9 10 10 10 10 10 9 10 10 10 10 10 10 9 9 10 10 10 9 9 9 10 9 10 9 10 13 12 11 10 10 10 10 10 10 10 10 12 13 13 14 14
20 19 19 18 18 18 18 18 18 17 16 16 16 16 16 15 15 14 14 13 13 12 12 12 11 11 12 11 11 10 10 11 10 10 10 10 10 10 10 9 9 10 10 10 11 11 11 12 11 11 11 11 12 11 11 10 10 10 10 10 10 10 10 10 9 7 9 12 11 10 10 11 11 9 9 10 11 11 11 10 11 12 13 13 14
21 20 20 20 19 19 19 19 18 18 18 17 17 17 17 16 16 15 15 14 14 13 13 13 13 13 13 12 12 12 12 12 12 11 11 11 10 10 10 10 10 10 10 11 11 12 12 13 13 12 12 12 13 12 11 11 11 10 10 10 11 11 10 10 8 8 11 13 11 8 8 10 11 10 10 10 11 12 11 11 11 11 12 13 13
22 21 21 21 21 20 20 20 20 19 19 19 18 18 18 18 17 16 16 15 15 14 14 14 14 14 14 14 14 14 14 14 13 13 12 11 11 11 11 11 11 11 11 12 12 13 13 13 13 13 13 13 13 12 11 11 11 11 11 11 11 10 9 9 9 9 10 9 8 9 10 8 9 11 11 10 10 11 11 12 11 10 10 11 12
22 22 22 21 21 21 21 21 21 20 20 20 20 19 19 18 18 18 17 17 17 16 15 15 15 15 15 15 15 15 16 16 15 14 13 12 12 12 12 11 11 12 12 12 13 13 13 14 14 14 14 13 12 12 12 11 11 12 11 11 10 10 9 10 11 10 10 9 9 10 10 8 10 11 11 12 11 10 11 12 12 10 9 11 12
21 21 22 22 22 22 21 21 21 21 21 21 21 20 20 19 19 19 19 18 18 17 16 16 16 16 16 16 16 16 16 16 16 16 16 15 13 12 11 11 11 12 13 13 13 13 13 14 14 14 13 13 13 13 13 12 12 12 11 11 11 11 10 11 11 10 10 10 10 9 8 9 11 12 12 13 12 11 11 12 13 11 9 11 11
21 21 21 22 22 22 22 22 21 21 21 21 22 23 22 20 19 19 19 19 19 18 18 17 17 17 17 17 17 17 16 15 15 17 19 19 19 17 15 13 13 12 13 14 14 14 14 14 15 14 14 14 14 13 13 13 12 12 12 12 11 10 10 11 11 11 10 10 11 10 10 10 12 12 11 12 13 11 10 11 14 12 11 12 12
23 22 22 22 22 22 22 22 22 22 21 21 23 25 26 24 22 19 18 19 19 19 19 18 18 18 19 19 18 18 18 18 18 20 22 24 24 23 22 20 19 17 16 15 14 15 15 16 16 16 15 15 15 14 14 13 13 12 12 11 10 10 10 10 11 11 10 10 11 12 12 12 12 13 12 12 13 10 9 12 14 13 13 14 12
24 24 23 23 22 22 22 22 23 23 22 22 23 25 27 29 27 23 20 19 19 19 19 20 19 19 19 20 20 20 20 20 20 21 23 25 25 25 24 23 24 24 24 22 20 18 16 16 16 17 17 17 16 15 15 14 13 12 11 11 11 11 12 11 12 12 11 10 11 12 13 14 13 13 14 14 14 13 14 16 16 15 15 15 12
23 24 24 23 23 23 23 23 23 23 23 23 24 26 27 29 30 28 25 22 21 21 21 20 20 21 21 21 20 21 20 20 20 20 21 22 23 24 24 23 24 25 27 28 28 27 24 20 18 18 18 17 16 16 15 14 13 12 11 11 12 12 13 13 14 14 13 11 12 13 15 14 14 14 15 15 14 16 19 18 17 17 15 14 12
23 24 24 24 23 23 23 23 23 24 24 24 25 27 29 29 30 30 29 26 24 24 24 23 22 22 22 22 22 22 22 21 21 20 20 20 21 22 23 24 25 27 27 29 30 31 31 30 27 26 24 21 19 18 16 15 14 14 13 13 13 14 14 15 15 16 16 15 15 16 16 16 15 16 17 15 12 16 20 19 17 16 14 13 12
24 24 23 23 23 23 23 23 23 24 25 25 25 26 28 29 30 31 31 29 25 24 25 25 25 25 24 23 23 22 23 23 24 24 23 21 21 21 22 22 23 24 26 28 30 31 33 35 35 35 33 30 25 22 19 18 17 17 16 15 15 14 14 15 16 17 18 17 17 16 16 16 15 14 16 14 9 13 18 18 15 14 13 12 12
23 23 22 23 23 23 24 23 23 23 24 25 27 28 27 28 28 29 32 31 27 24 24 25 26 27 27 26 25 24 24 25 26 27 27 25 22 21 21 21 21 21 23 24 27 29 31 33 36 37 36 33 30 27 24 22 21 20 18 17 16 15 14 15 15 17 17 16 16 17 17 17 15 13 15 13 8 13 16 17 15 14 14 13 11
20 21 21 21 22 22 23 24 23 23 23 24 26 29 29 29 29 30 32 31 26 25 25 25 26 27 28 29 29 27 26 27 28 28 28 28 26 24 22 22 21 22 23 22 24 27 29 30 32 33 35 34 32 30 29 28 27 24 21 18 16 16 15 15 15 16 16 16 15 16 17 17 15 14 14 14 12 12 14 15 16 15 14 13 11
18 19 19 20 20 21 22 23 23 23 23 23 25 28 30 31 32 33 33 30 26 25 25 25 26 27 28 31 32 30 29 28 29 29 28 29 29 27 25 23 23 24 24 22 22 25 27 29 30 30 31 31 31 31 31 31 31 30 27 24 20 17 17 16 16 16 17 17 17 16 16 17 15 14 14 13 14 14 14 14 16 17 16 14 12
18 17 18 18 19 20 21 22 23 24 23 23 25 27 29 32 33 35 33 27 24 24 24 24 24 25 27 30 33 35 35 32 30 29 28 29 30 28 26 24 25 26 25 23 22 23 24 27 30 32 32 31 30 31 31 32 33 32 32 31 25 21 19 19 18 15 14 15 16 15 16 17 15 14 14 12 11 12 12 14 16 17 16 15 13
Wind_Direction
119 118 119 123 129 128 120 117 124 131 128 124 124 117 117 117 109 110 112 115 115 113 116 116 113 113 113 114 114 112 112 115 118 120 123 124 120 120 128 132 130 131 133 132 130 127 122 118 112 103 92 83 80 74 65 49 38 33 28 23 15 13 5 0 4 2 359 357 355 349 347 350 349 350 352 351 352 351 348 345 344 335 325 320 313
108 111 111 112 115 114 111 111 117 122 121 125 134 134 133 123 112 111 111 112 110 111 114 114 113 114 115 117 118 118 117 118 122 125 127 130 128 120 120 127 129 127 130 132 132 134 132 127 115 99 93 88 81 66 51 38 21 16 11 3 1 2 354 354 356 355 353 344 343 343 342 346 345 344 344 342 342 340 338 339 339 330 320 314 308
108 112 111 109 108 106 104 102 103 104 103 106 106 109 111 104 102 104 106 107 104 110 113 112 115 115 118 119 119 121 124 127 128 129 130 134 137 129 118 117 121 122 123 125 129 136 138 132 125 115 112 108 98 74 25 5 359 357 350 347 346 344 345 347 345 343 339 330 332 336 336 338 335 334 334 331 330 329 332 334 331 324 317 311 306
105 109 108 104 104 100 96 96 98 96 98 100 96 99 102 94 94 98 103 106 105 109 113 114 115 116 120 118 118 119 121 126 124 122 126 134 142 143 136 119 112 120 126 129 132 135 138 136 132 136 149 156 171 197 348 341 339 334 328 332 331 332 336 333 328 326 321 320 325 327 328 327 323 324 323 321 320 320 325 325 323 319 314 309 304
102 103 102 101 97 96 96 94 95 97 101 100 96 98 98 92 94 100 101 103 107 109 111 113 114 117 119 116 116 116 115 118 117 123 129 132 136 140 146 142 118 111 114 115 121 120 120 135 145 155 199 217 220 245 286 303 311 314 319 323 319 318 319 314 312 310 311 315 318 319 318 317 316 317 314 311 312 315 320 320 318 314 310 307 303
101 90 95 100 94 96 98 96 95 99 98 93 93 87 81 84 84 92 97 97 102 106 108 109 108 111 112 112 115 115 115 115 116 121 121 123 128 130 136 145 154 148 123 96 89 89 85 68 341 274 278 282 286 301 300 299 305 303 303 304 301 299 300 300 299 301 306 311 313 315 316 318 320 320 317 314 314 317 319 318 314 310 306 304 302
102 80 92 105 100 96 95 97 94 93 92 85 96 90 77 78 73 79 86 88 94 99 103 103 103 105 103 106 109 110 110 108 114 118 119 120 123 128 129 138 152 160 154 122 81 64 60 59 28 347 312 318 320 327 327 318 314 309 306 304 303 299 296 296 296 300 307 310 314 320 325 329 328 327 327 324 320 321 321 319 314 308 306 303 301
108 85 89 108 105 99 94 98 93 92 95 77 91 99 91 86 75 77 77 85 98 97 98 102 106 110 112 113 109 110 111 111 116 113 116 122 126 133 132 133 134 144 153 160 147 74 53 51 46 36 20 9 1 347 334 328 323 320 320 319 320 316 310 306 304 309 312 315 319 324 329 329 327 327 326 325 323 322 320 318 314 310 308 305 302
118 89 81 107 105 104 102 99 93 95 98 82 89 97 101 99 88 89 76 78 99 99 103 109 113 118 123 119 113 115 110 107 113 107 110 126 143 139 132 135 136 148 152 142 152 131 47 51 60 53 44 35 27 20 1 342 337 328 324 327 333 323 317 313 311 316 316 317 321 324 327 325 325 325 324 324 323 322 320 317 315 313 312 310 307
129 101 84 108 100 99 106 101 93 95 99 98 97 91 93 99 96 96 66 53 82 92 99 102 108 117 122 117 113 117 112 110 115 119 139 137 133 130 123 137 137 132 138 121 129 151 59 38 47 49 44 42 47 39 30 18 351 338 335 330 331 320 316 320 319 324 323 324 325 326 327 326 326 326 325 326 324 322 321 319 317 316 315 313 311
139 124 101 112 105 101 113 115 104 99 108 110 103 98 94 94 100 105 89 73 75 79 91 95 99 103 115 121 117 116 114 126 132 129 145 127 127 149 132 135 138 124 131 138 127 128 132 59 31 50 32 32 51 47 30 30 9 348 343 328 322 319 322 327 327 332 330 330 329 329 330 329 330 329 328 328 326 325 323 321 320 317 316 314 313
143 140 125 119 117 119 125 126 114 102 89 92 96 97 95 95 102 107 108 105 98 96 94 83 90 93 109 124 125 131 121 134 152 139 133 121 121 164 135 122 131 130 127 134 130 118 122 130 131 152 284 351 25 28 22 26 15 358 338 324 322 321 326 331 333 336 333 333 333 332 333 332 332 329 328 327 325 324 321 319 317 315 314 312 311
148 148 143 131 122 124 132 128 117 104 84 78 87 92 96 100 105 109 115 112 112 109 90 81 105 115 136 139 133 137 131 148 164 143 135 133 122 129 136 127 126 132 124 114 125 127 125 143 146 140 179 295 334 348 360 17 9 356 342 329 329 330 336 339 339 338 334 332 332 332 332 329 327 324 322 320 318 316 314 312 311 309 309 308 307
156 154 151 154 142 136 144 132 112 106 96 93 97 99 99 100 107 119 131 118 91 89 94 106 128 121 133 141 135 128 138 177 175 152 142 141 136 131 138 134 123 123 127 126 142 148 136 135 135 131 153 246 281 310 335 348 342 341 343 343 351 353 355 354 345 338 332 329 327 326 324 320 318 315 313 311 309 308 306 305 304 304 303 303 303
163 160 157 162 155 150 151 136 122 116 112 108 107 107 105 106 108 111 131 132 111 101 101 341 67 107 128 142 134 118 124 207 176 147 138 149 152 139 130 125 115 115 144 150 142 138 132 122 121 137 165 218 218 259 293 283 302 325 341 357 7 7 359 351 338 329 323 321 318 315 312 310 308 306 305 304 303 302 302 301 300 299 299 299 299
165 165 163 160 158 161 147 135 136 129 125 126 123 121 121 123 102 102 148 131 130 122 106 48 60 100 146 154 138 120 122 156 142 123 127 148 139 118 128 128 117 129 171 143 120 126 141 135 136 157 177 206 219 247 253 241 287 315 334 357 359 350 341 332 323 319 315 311 308 306 304 303 302 302 302 303 304 303 302 300 299 299 299 299 299
166 169 167 160 163 160 138 139 145 145 150 145 135 127 123 124 108 127 240 42 95 130 112 85 74 74 91 113 119 115 103 127 125 325 308 131 115 106 145 133 116 135 158 109 114 154 152 140 150 176 186 209 218 231 250 245 274 294 300 320 333 330 325 320 313 311 308 306 305 305 304 304 304 305 306 308 308 307 306 305 305 305 305 305 304
166 171 165 161 167 155 146 152 147 155 171 138 134 144 142 143 132 151 186 55 356 29 111 114 94 96 123 104 83 105 106 57 89 296 310 23 120 130 146 129 121 144 155 139 153 162 144 142 162 181 182 200 219 230 246 234 246 264 270 294 313 318 315 311 310 310 310 310 311 311 312 311 312 313 314 315 315 315 315 316 315 315 314 314 314
167 170 163 160 166 161 160 160 155 162 165 147 165 156 133 131 132 128 102 122 318 349 6 129 113 156 167 137 125 98 112 106 91 141 9 342 314 138 136 142 142 147 157 159 148 128 121 151 165 167 166 181 214 229 240 226 248 271 275 291 303 306 307 309 311 313 314 316 317 319 319 319 321 322 324 324 325 326 327 326 325 325 326 327 328
167 168 170 166 169 169 165 165 169 166 159 169 193 131 108 116 132 135 102 157 202 309 313 296 209 160 162 161 154 124 140 125 90 114 135 18 304 119 119 132 131 119 132 139 125 124 137 153 165 158 154 165 205 227 243 234 257 279 283 294 305 308 310 313 317 319 321 323 324 326 327 329 331 330 332 333 334 335 333 333 333 335 337 338 339
165 168 177 176 176 175 169 174 175 169 179 178 167 147 123 126 146 156 171 190 201 230 265 288 299 341 135 196 192 169 194 151 134 176 191 162 171 112 109 113 112 96 69 101 113 130 133 130 154 157 149 158 189 223 258 271 293 284 283 299 314 318 320 322 326 328 330 332 333 334 335 335 335 336 338 340 340 338 337 339 342 346 350 353 356
172 174 181 181 182 182 176 180 180 180 195 164 141 155 149 154 174 169 181 193 198 231 229 250 299 311 165 167 223 222 205 182 176 165 132 215 265 173 157 159 144 140 93 74 109 117 118 145 161 151 132 131 169 212 283 267 291 305 303 317 327 327 331 334 336 338 338 338 338 336 337 338 340 344 345 345 345 348 352 358 2 6 9 10 8
179 180 186 186 185 187 186 185 186 184 186 163 163 178 171 173 176 162 182 213 214 228 238 233 255 275 238 182 204 213 181 209 241 33 177 220 272 272 160 130 151 151 131 125 190 137 148 181 149 130 115 88 78 49 186 234 277 344 335 332 340 341 343 344 343 344 343 341 339 339 343 348 350 351 351 355 3 11 15 17 16 16 13 8 5
182 183 188 189 185 187 190 187 185 184 183 187 190 185 175 174 168 165 179 199 224 233 244 240 223 235 240 212 218 223 197 214 209 179 235 288 303 289 315 86 218 163 140 179 200 166 165 165 119 118 132 109 57 307 235 222 264 336 346 333 333 346 349 350 350 348 347 345 345 351 354 355 355 356 4 15 22 25 23 20 16 11 9 7 9
186 185 187 188 185 187 189 184 181 182 183 190 189 188 198 186 176 188 187 183 207 226 240 243 229 231 242 226 230 236 213 226 224 186 183 148 239 271 310 287 230 177 136 200 205 168 168 166 141 135 157 206 191 272 283 224 250 325 348 325 309 334 342 346 350 348 349 351 352 357 358 359 2 8 20 28 29 28 24 18 12 9 12 13 13
193 189 187 187 187 189 189 185 179 181 185 190 187 195 220 214 186 195 196 185 198 217 236 243 234 231 244 243 243 246 225 222 237 228 212 197 214 249 321 297 260 194 144 210 248 225 189 175 185 178 179 260 281 255 297 291 267 327 358 340 294 323 333 337 343 347 353 357 356 358 1 5 10 17 29 32 30 28 23 16 10 11 16 13 9
195 193 189 188 189 187 190 190 186 185 189 195 193 199 218 222 209 212 208 188 195 224 236 238 233 228 233 247 252 248 242 239 236 244 252 240 243 251 268 291 285 259 154 184 224 239 213 176 182 175 174 258 284 253 286 308 274 322 4 4 294 312 323 329 337 347 358 359 356 359 4 9 15 23 31 32 30 27 22 17 13 12 14 11 8
196 196 193 192 192 189 192 195 193 193 195 198 199 202 212 215 215 223 226 207 197 222 240 236 230 228 221 230 252 254 251 271 269 262 274 269 277 251 243 280 300 302 253 201 206 211 222 211 189 179 224 259 274 264 288 295 265 314 356 346 301 305 313 326 337 350 359 359 358 359 4 11 17 25 29 29 28 25 21 21 16 13 13 12 14
198 195 193 193 195 195 198 199 198 200 203 203 204 206 209 213 216 214 222 230 211 211 235 238 232 236 222 205 223 252 257 267 273 268 295 296 258 231 240 265 289 297 295 277 256 224 236 247 210 170 195 248 263 267 273 266 272 307 334 322 305 293 302 321 339 351 353 355 359 359 3 12 17 23 25 24 24 22 22 22 18 16 16 16 19
205 199 194 194 196 197 201 203 203 205 209 209 209 214 216 216 218 214 216 226 218 215 239 241 233 239 241 220 215 237 248 244 254 251 198 209 239 236 233 226 236 271 283 287 282 269 265 272 257 181 159 239 263 272 267 271 284 301 317 311 290 279 300 320 333 341 343 346 356 358 1 10 14 17 17 16 18 18 19 21 19 17 17 19 23
206 203 199 198 198 198 200 203 206 207 210 213 212 215 221 224 224 218 217 222 220 224 240 241 233 224 228 242 238 238 252 252 253 255 236 226 237 234 232 229 230 248 263 258 262 268 271 272 272 281 274 255 271 284 279 283 288 295 306 300 278 285 304 312 314 325 330 334 346 353 358 7 11 11 9 8 12 12 12 16 16 16 16 19 23
205 205 204 203 199 199 202 204 208 209 209 213 214 213 217 225 231 225 219 220 220 224 234 241 246 230 212 226 235 232 242 248 249 254 248 241 244 237 229 232 237 240 244 247 254 264 267 270 277 285 277 267 272 274 274 282 286 294 307 296 283 297 301 294 298 308 312 322 339 348 353 2 6 4 1 359 3 4 5 8 10 11 14 17 20
206 205 206 205 202 201 203 205 209 211 210 213 215 215 216 220 229 232 226 219 220 225 228 232 242 239 217 222 234 234 238 242 246 252 251 244 241 240 237 234 238 242 240 242 254 263 265 269 278 280 277 277 278 268 268 280 282 289 302 295 288 294 293 281 282 289 298 308 325 340 346 354 360 358 354 353 353 353 356 359 2 7 12 13 16
207 207 206 206 206 205 204 206 209 210 210 212 216 217 218 219 223 228 227 221 221 229 231 229 236 240 233 232 237 238 240 241 243 247 251 249 243 240 240 237 240 244 239 240 253 265 267 267 270 272 271 269 269 268 268 277 282 285 290 290 289 290 292 287 274 273 285 291 308 331 339 346 353 351 348 346 342 343 347 349 354 2 8 11 13
206 209 209 207 206 207 207 207 208 210 209 210 214 217 218 219 222 226 227 224 224 227 231 231 233 235 236 238 240 241 241 240 243 247 249 251 251 249 247 243 245 248 244 241 248 260 267 268 266 268 271 267 265 271 273 273 275 277 280 282 287 287 285 292 280 261 263 279 303 322 328 336 345 344 342 340 334 332 337 341 347 355 3 8 11
207 207 209 209 207 206 208 209 208 210 211 211 213 216 218 218 221 224 226 228 229 229 231 232 232 232 234 236 239 242 246 245 245 248 251 251 251 252 252 250 249 252 251 247 246 253 264 271 270 268 274 277 275 275 275 273 271 270 270 273 281 282 277 289 289 260 256 283 301 307 316 327 332 334 335 334 329 326 327 332 339 348 356 3 9
209 206 206 209 209 207 208 210 210 210 211 213 214 217 219 218 218 222 224 226 230 232 233 235 233 232 234 236 238 240 244 247 246 246 250 252 250 250 251 250 248 249 250 249 248 251 256 264 270 271 273 274 274 273 271 271 271 270 268 267 271 274 272 281 289 279 281 289 283 283 306 319 318 319 325 327 325 323 321 324 330 339 349 357 5
211 209 206 206 208 210 210 210 212 212 213 215 217 219 221 221 220 221 223 224 227 230 231 234 233 232 234 235 235 236 238 241 244 244 245 247 249 249 250 253 253 252 252 251 250 251 253 258 264 268 270 268 269 269 266 265 269 272 276 277 275 272 267 270 279 286 287 280 266 264 290 308 311 309 313 321 324 321 319 321 322 328 340 351 0
209 212 210 206 206 209 211 212 213 214 214 216 218 219 222 223 223 222 223 223 225 227 228 230 229 230 233 234 234 235 236 238 242 244 245 245 246 247 248 251 253 254 255 253 252 252 253 257 260 262 264 264 265 265 264 262 263 266 272 276 276 272 266 266 272 280 283 274 262 263 265 276 300 307 305 308 314 313 313 319 321 318 329 345 354
208 211 213 210 207 207 211 213 214 214 215 216 218 219 220 223 224 223 223 223 224 225 226 228 228 228 232 236 237 236 234 235 237 241 244 245 246 249 248 247 248 251 254 256 256 254 254 257 260 262 265 266 266 268 270 267 260 261 266 268 271 273 271 271 270 270 276 276 269 260 244 253 289 298 294 294 297 296 298 310 315 310 320 338 348
209 211 214 214 211 210 211 212 214 216 217 217 218 217 218 220 223 224 224 223 224 226 226 228 229 229 232 236 239 240 238 235 233 235 239 240 242 247 250 250 249 249 251 254 258 258 258 259 260 262 264 264 263 261 261 259 257 260 265 266 270 275 275 277 275 270 272 274 275 266 242 254 276 278 282 290 287 283 288 300 304 302 315 333 340
211 211 214 216 215 213 212 212 215 217 219 221 219 217 216 217 220 224 226 225 225 227 228 230 231 231 233 236 240 242 243 241 237 237 240 242 243 246 248 247 247 249 251 252 254 255 256 257 259 261 261 261 261 259 258 258 256 258 260 260 265 274 279 281 280 279 274 268 273 274 265 269 273 267 272 275 269 271 279 284 292 296 307 320 329
212 212 214 216 218 218 215 215 216 219 223 225 221 218 217 218 218 222 226 228 227 228 229 231 232 234 236 237 240 242 241 241 242 244 247 249 250 252 251 248 244 243 245 248 252 253 254 255 257 259 261 263 264 264 266 268 267 266 268 267 270 277 281 281 281 282 278 267 267 270 269 273 274 269 269 263 259 263 252 255 276 287 292 304 317
211 212 214 216 219 222 222 221 220 221 224 226 224 221 220 222 223 224 226 229 229 230 230 231 233 235 237 239 241 241 240 239 237 240 246 251 254 255 254 251 247 243 242 244 247 249 252 256 259 259 260 264 266 264 264 267 271 276 277 273 271 273 273 274 276 279 280 273 268 269 271 275 273 265 260 258 260 255 240 246 266 274 279 294 306
210 211 213 215 217 221 225 228 227 226 226 225 225 223 222 225 227 228 228 230 233 233 233 234 234 235 237 240 242 243 244 243 239 235 237 244 251 256 255 253 249 246 243 242 244 245 247 252 257 259 259 260 263 263 262 266 269 269 268 265 264 264 264 266 270 274 277 275 270 272 274 276 276 269 261 259 257 249 242 247 261 267 275 291 299
209 211 213 214 216 218 223 227 229 231 230 228 226 224 223 225 228 231 230 230 234 237 237 237 238 237 237 237 239 241 243 244 242 238 234 234 241 249 254 254 253 251 248 245 244 244 244 245 247 251 253 254 257 259 260 262 260 255 253 255 258 259 260 264 268 270 272 270 270 275 275 273 276 275 271 267 250 241 246 249 255 265 277 289 294
209 210 212 213 214 216 219 222 225 228 230 230 229 228 226 225 227 231 232 231 233 237 238 238 239 240 240 239 239 240 240 241 241 240 237 234 233 239 244 248 250 250 249 248 247 246 245 244 245 248 250 250 251 254 255 255 254 252 250 250 254 260 263 264 266 267 269 268 264 263 266 271 275 274 275 275 239 224 245 254 255 270 284 289 291
213 212 213 215 216 217 218 219 223 227 229 229 229 229 229 228 227 229 231 231 232 235 237 236 237 238 239 239 239 240 240 241 242 241 239 236 235 236 239 242 244 245 246 247 248 249 249 248 248 249 251 251 250 250 252 252 252 252 252 249 249 251 255 258 260 262 266 268 261 254 254 261 269 270 274 279 244 216 240 257 261 269 280 283 284
220 216 216 217 218 219 219 219 221 226 229 230 229 229 229 229 228 229 229 229 229 233 235 235 234 235 235 236 237 238 239 241 242 243 241 238 235 237 241 243 246 248 248 249 249 249 250 252 252 252 253 253 252 250 248 249 248 248 249 248 242 240 244 249 254 258 262 265 264 261 256 254 258 263 267 274 264 237 237 251 258 258 261 265 269
229 225 223 221 220 220 220 220 221 225 228 229 229 229 229 230 230 230 229 227 227 230 232 233 233 233 234 235 235 235 236 239 240 241 241 239 236 236 240 244 247 249 250 251 252 252 251 251 252 253 253 254 253 251 248 247 246 245 244 244 240 240 243 246 251 257 262 264 262 263 265 261 260 261 262 267 269 256 241 243 250 248 243 247 253
242 233 231 228 226 225 224 222 222 224 228 230 230 229 229 230 231 231 229 227 227 230 231 232 233 233 234 237 237 237 237 238 238 239 239 238 235 234 237 242 245 247 249 250 252 254 251 246 244 246 248 249 250 250 249 248 246 243 242 241 240 240 243 246 249 253 259 262 257 252 255 258 257 257 259 260 265 262 244 233 238 239 234 237 246
Height
852 854 856 857 858 859 862 864 864 865 864 862 860 859 860 860 860 861 861 861 861 862 862 862 863 863 864 864 865 866 866 867 868 868 869 869 869 869 870 870 871 871 871 872 872 872 872 872 872 872 872 872 872 872 872 872 872 871 871 871 871 871 871 870 869 869 869 868 868 867 867 866 865 865 864 863 862 862 861 861 860 859 859 858 858
852 853 854 855 857 857 859 861 862 863 863 862 862 861 861 861 861 861 861 861 861 861 862 862 862 863 864 864 865 866 867 867 868 868 869 869 870 870 870 870 871 871 871 871 872 872 872 872 872 872 872 872 872 872 872 872 872 872 872 871 871 871 871 870 869 869 869 868 868 867 867 866 865 865 864 863 862 862 861 860 860 859 859 858 858
852 853 854 855 855 856 858 860 861 861 861 861 861 862 862 862 861 861 861 861 861 861 862 862 863 864 864 865 865 866 867 867 868 868 869 869 870 870 870 871 871 871 871 871 871 872 872 872 872 872 873 872 872 872 872 872 872 872 872 872 871 871 870 870 869 869 869 868 867 867 866 866 865 865 864 863 862 861 861 860 860 859 858 858 857
853 853 854 855 855 856 857 859 860 861 862 862 862 862 862 862 862 862 861 861 862 862 862 863 863 864 864 865 866 866 867 867 867 868 869 869 870 870 870 871 871 871 871 871 872 872 872 872 872 872 872 872 872 872 873 872 872 872 872 871 871 871 870 870 869 869 868 868 867 867 866 866 865 864 864 863 862 861 861 860 859 859 858 857 857
853 854 854 855 855 856 858 859 860 861 862 862 862 863 862 862 862 861 861 861 862 862 863 863 863 864 865 866 866 867 867 867 868 868 869 869 870 871 871 871 871 871 871 871 872 872 872 872 872 873 872 872 872 872 872 872 872 872 871 871 871 870 870 870 869 868 868 867 867 866 866 865 865 864 863 863 862 861 860 860 859 858 858 857 856
854 855 855 856 856 857 858 859 860 861 861 862 862 863 863 863 862 862 862 862 862 862 863 863 864 865 865 866 867 867 868 868 868 868 869 869 870 871 871 872 871 871 871 872 872 872 872 872 872 872 872 872 872 872 872 872 872 871 871 870 870 870 869 869 868 868 867 867 867 866 865 865 864 864 863 862 861 861 860 859 858 858 857 857 856
855 856 856 857 857 858 859 860 860 861 862 862 863 863 863 863 863 862 862 862 863 863 864 864 865 866 866 867 867 868 868 869 869 869 869 869 870 871 871 872 872 872 872 872 872 872 872 872 872 872 872 872 872 872 872 871 871 871 870 870 869 869 869 868 868 868 867 866 866 865 865 864 864 863 862 861 861 860 859 858 858 857 856 856 855
857 857 858 858 858 859 859 860 861 862 863 862 863 863 863 864 864 864 863 863 864 864 865 865 866 866 867 867 868 868 869 869 869 869 869 870 870 870 871 871 871 872 872 872 871 871 872 871 872 872 872 872 872 872 871 871 871 870 870 869 869 869 868 868 868 867 867 866 866 865 864 864 863 862 861 861 860 859 858 857 857 856 855 855 854
858 858 859 859 859 860 861 861 862 863 863 863 863 864 864 865 865 865 865 864 864 865 865 866 866 867 867 868 868 869 869 870 870 870 870 870 869 869 870 870 870 870 871 871 872 871 871 871 872 872 872 872 871 871 871 871 871 870 870 869 869 869 868 868 867 867 866 865 865 864 863 863 862 861 860 860 859 858 857 856 856 855 854 853 853
859 859 860 860 860 861 862 862 863 863 864 864 864 864 864 865 865 866 866 865 865 865 865 866 866 866 867 868 869 869 869 870 870 870 870 869 869 869 869 870 870 870 871 871 872 872 871 872 872 872 872 872 871 871 871 871 870 870 870 869 869 868 868 867 867 866 866 865 864 863 862 862 861 860 859 859 858 857 856 855 855 854 853 852 851
860 860 861 861 861 862 863 863 863 864 864 864 864 865 865 865 866 866 867 866 866 866 866 866 866 867 867 868 869 869 870 870 870 870 869 869 869 868 868 869 870 870 871 871 871 872 872 872 872 872 872 872 872 871 871 871 870 870 870 869 869 868 868 867 866 866 865 864 863 862 862 861 860 859 859 858 857 856 855 854 854 853 852 851 850
860 861 861 862 862 863 863 863 864 864 865 864 865 865 866 866 866 867 867 867 867 867 867 867 867 868 868 868 869 869 869 869 869 869 869 868 868 868 867 868 869 870 870 870 871 871 872 872 872 873 872 872 872 871 871 871 870 870 870 869 869 868 867 867 866 865 864 863 862 862 861 860 859 858 858 857 856 855 854 853 852 851 850 849 849
861 861 862 863 863 864 864 864 864 865 865 865 865 866 866 866 867 867 867 867 867 867 867 867 867 868 868 868 868 869 869 869 868 867 868 868 868 868 867 867 869 870 870 871 871 871 872 872 873 873 873 872 872 871 871 871 870 870 869 869 868 867 867 866 865 864 863 862 862 861 860 859 859 858 857 856 855 854 853 852 851 850 849 848 847
861 862 862 863 864 864 864 864 865 865 866 866 866 866 866 867 867 867 867 868 868 867 868 868 867 867 867 868 868 869 869 868 867 866 866 866 867 867 866 866 868 869 870 871 871 871 871 872 872 873 872 872 872 871 871 871 870 870 869 868 868 867 866 865 865 863 862 862 861 860 859 858 858 857 856 855 854 853 851 850 849 848 847 846 845
861 862 863 863 864 864 865 865 865 865 866 866 866 867 867 867 867 868 868 868 868 868 868 867 866 867 868 869 869 870 871 868 866 866 865 865 865 865 866 866 868 869 869 870 870 870 871 871 872 872 872 872 872 872 871 871 870 870 869 868 867 867 866 865 864 863 862 861 860 859 858 857 856 855 854 853 852 851 850 849 847 846 845 844 843
861 862 863 864 864 865 865 865 865 866 866 867 867 867 867 867 868 868 868 868 868 868 868 868 867 868 868 869 868 871 874 870 866 866 865 864 864 864 865 866 868 869 869 868 869 870 871 871 872 872 872 872 872 872 871 871 870 869 868 868 867 866 865 864 863 862 861 860 859 858 857 856 855 854 853 852 851 849 848 847 846 845 843 842 841
861 862 863 864 864 865 865 866 866 866 867 867 867 867 868 868 868 868 869 869 869 868 868 868 869 869 869 869 870 874 875 868 866 868 865 863 864 865 865 865 867 869 868 868 870 870 870 871 871 872 871 871 871 871 871 871 870 869 868 867 867 866 865 864 862 861 860 859 858 857 856 855 854 853 852 851 850 848 847 846 845 844 842 841 840
861 862 863 864 864 865 866 866 867 867 867 867 867 867 868 868 868 869 869 870 870 869 869 869 869 870 869 869 870 873 872 868 870 871 867 864 864 865 865 865 867 869 868 869 869 869 869 870 871 871 871 871 871 871 870 870 869 869 868 867 866 865 864 863 862 861 860 858 857 856 855 854 853 852 851 850 849 848 847 845 844 843 842 841 839
861 862 863 864 864 865 866 866 867 867 867 867 867 867 868 869 869 870 869 870 871 871 870 870 870 870 870 870 869 869 870 870 870 872 871 868 864 863 864 864 865 866 866 867 867 868 869 869 870 870 870 871 870 870 870 869 869 868 868 867 866 865 864 862 861 860 859 858 857 856 855 854 853 852 851 850 848 847 846 845 844 843 841 840 839
861 862 863 863 864 865 866 866 867 867 868 868 867 867 868 869 870 870 870 870 871 871 871 870 870 870 869 870 870 870 870 870 869 870 871 871 867 863 863 863 864 865 865 865 866 868 869 869 869 869 870 870 870 870 870 869 869 868 867 867 866 865 863 862 861 860 859 858 857 856 855 854 853 852 851 850 848 847 846 845 843 842 841 840 838
860 861 862 863 864 865 865 866 867 867 867 867 868 868 869 870 870 870 871 871 871 872 871 872 871 870 870 871 870 870 870 869 870 870 869 870 869 865 864 865 865 866 866 865 866 867 868 869 869 869 869 869 870 869 869 869 869 868 867 866 865 864 863 862 861 860 859 858 857 856 855 854 853 852 850 849 848 847 845 844 843 842 840 839 838
860 861 862 863 864 865 865 866 867 867 867 867 868 869 869 870 870 870 871 871 872 872 872 872 872 871 871 872 872 871 870 870 869 869 869 870 869 865 864 865 865 867 867 866 867 867 868 868 868 868 868 869 869 869 869 869 869 868 867 866 865 864 863 862 861 860 859 858 857 856 855 853 852 851 850 849 848 846 845 844 843 841 840 839 838
859 860 861 862 863 864 865 866 866 867 867 868 868 869 869 869 870 870 871 871 872 872 872 872 872 872 871 872 872 871 871 871 870 870 870 870 869 866 863 864 865 866 867 868 867 867 868 867 867 868 869 869 869 869 869 868 868 868 867 866 865 864 863 862 861 860 859 858 857 855 854 853 852 851 850 849 847 846 845 844 842 841 840 839 838
858 859 860 861 862 864 865 865 866 867 867 868 868 868 868 869 869 869 870 871 871 872 872 872 872 872 872 871 872 870 871 871 871 871 871 870 871 868 865 865 866 865 867 868 867 867 867 867 867 868 869 869 869 869 868 868 867 867 866 865 865 864 863 862 861 860 859 858 857 855 854 853 852 851 850 849 847 846 845 844 842 841 840 839 838
857 858 859 861 862 863 864 865 866 867 867 868 868 868 868 869 869 869 869 870 871 871 872 872 872 872 872 871 871 870 870 871 870 871 871 872 872 870 867 867 866 865 867 867 866 866 867 867 868 868 869 869 869 869 868 867 867 866 866 865 864 864 863 862 861 860 859 858 857 856 855 853 852 851 850 849 848 846 845 844 842 841 840 839 838
856 857 858 860 861 862 863 864 865 866 867 867 868 868 868 868 869 869 869 870 871 871 872 871 872 872 872 871 871 870 870 870 871 870 870 871 871 870 870 869 866 864 866 867 866 866 866 867 868 868 869 869 869 868 868 867 867 866 866 865 864 863 862 862 860 859 859 858 857 856 855 853 852 851 850 849 848 846 845 844 843 841 840 839 838
855 856 858 859 860 861 862 863 864 865 866 866 867 868 868 868 869 869 869 870 870 871 871 871 871 872 872 872 871 870 870 870 870 870 870 870 870 871 871 871 869 865 865 866 867 866 865 866 867 868 868 869 868 868 868 867 866 866 866 865 863 863 862 861 860 859 859 858 857 856 854 853 852 852 851 849 848 847 846 844 843 842 840 839 838
854 856 857 858 859 860 862 862 863 864 865 865 866 867 868 868 868 869 869 870 870 871 870 870 871 871 871 872 872 871 871 871 870 870 871 871 871 872 872 872 872 871 868 866 865 865 865 865 865 867 868 868 868 868 867 867 866 866 865 865 864 862 861 861 860 859 858 858 857 855 854 853 852 851 850 849 848 847 846 845 843 842 840 839 837
853 854 856 857 858 859 860 861 862 863 864 864 865 866 867 867 868 869 869 869 870 870 871 871 870 870 870 871 872 871 871 871 871 870 871 872 872 873 873 872 872 873 872 871 867 864 865 864 864 866 867 867 867 867 867 866 865 865 865 864 864 862 861 860 859 858 858 857 856 855 854 853 852 851 850 849 848 847 846 844 843 842 840 838 837
851 853 854 856 857 858 859 860 861 862 863 864 864 865 866 866 867 868 868 869 870 870 871 871 870 870 870 870 871 871 871 871 871 871 871 872 872 872 873 872 872 872 871 873 871 866 865 865 864 864 866 866 866 866 866 865 864 864 864 863 863 861 860 859 859 858 857 856 856 855 854 852 851 851 850 849 848 846 845 844 842 841 840 838 837
850 851 853 854 855 857 858 859 860 861 862 863 864 864 865 865 866 867 867 868 869 870 870 870 870 870 870 871 871 871 871 871 871 871 871 871 872 872 872 872 872 872 870 871 872 868 867 866 864 865 865 865 865 865 865 864 863 863 862 862 861 860 859 858 857 857 856 856 855 854 853 852 851 850 849 848 847 846 845 843 842 841 839 838 836
848 849 851 852 853 855 856 858 858 859 861 861 862 863 864 865 865 865 866 867 868 869 869 869 869 870 870 870 871 871 871 871 871 871 871 871 871 871 872 871 871 871 870 870 870 869 868 867 865 865 865 865 865 864 864 864 862 861 861 860 860 859 857 856 856 856 855 855 854 853 852 851 850 849 848 848 846 845 844 843 842 840 839 838 836
846 847 849 850 851 853 854 855 857 858 859 860 861 862 862 863 864 864 865 866 867 867 868 869 869 869 869 869 870 870 870 871 870 870 870 870 870 870 871 871 870 870 870 869 869 868 867 867 866 865 865 864 864 864 864 863 862 861 860 860 859 858 857 856 855 854 855 854 853 853 852 851 850 849 848 847 846 845 843 842 841 840 839 837 836
843 845 847 848 850 851 852 853 854 856 857 858 859 860 860 861 862 863 863 864 865 866 866 867 868 868 868 869 869 870 870 870 870 870 869 869 869 869 869 870 869 869 869 869 868 867 866 866 866 865 864 864 863 863 863 862 861 861 860 859 858 857 857 856 854 853 853 853 852 852 851 850 849 848 847 846 845 844 843 842 840 839 838 837 835
841 843 844 846 847 849 850 851 852 853 855 856 857 858 858 860 860 861 862 862 863 864 865 866 866 867 867 868 868 868 868 869 869 869 868 868 868 868 868 868 868 868 868 868 868 867 866 865 865 864 863 863 862 862 862 861 861 860 859 858 858 857 856 856 854 852 851 852 851 851 850 849 849 848 847 845 844 843 842 841 840 839 838 836 835
838 840 842 843 845 846 848 849 850 851 852 853 855 855 856 857 858 859 860 861 861 862 863 864 864 865 865 866 867 867 867 867 868 868 867 867 867 867 867 867 867 867 867 867 867 867 866 865 864 863 862 862 861 861 861 860 859 859 858 857 857 856 855 855 853 851 850 851 850 850 850 849 848 847 846 845 843 842 841 840 839 838 837 836 835
834 836 839 841 842 843 845 846 847 849 850 851 852 853 854 855 856 857 858 859 859 860 861 862 862 863 864 864 865 865 866 866 866 866 866 866 866 866 866 866 866 866 866 866 866 866 865 864 863 863 862 861 861 860 860 859 858 857 856 856 855 855 854 854 853 850 849 849 849 849 848 847 846 846 845 844 843 842 841 840 839 838 837 836 834
831 832 834 837 839 841 842 843 845 846 847 849 849 850 851 852 853 854 855 856 857 858 859 859 860 861 862 862 863 863 864 864 864 864 864 865 865 865 865 865 865 865 865 865 865 864 864 863 863 862 861 860 859 859 858 858 857 856 855 855 854 853 853 852 852 851 848 847 847 847 847 846 845 844 843 843 842 841 840 839 838 837 836 835 834
827 829 830 833 835 837 839 840 842 843 844 846 847 848 849 849 851 852 852 854 854 855 856 857 858 859 859 860 860 861 861 862 862 862 862 863 863 863 864 864 864 864 864 863 863 863 863 862 861 860 859 858 858 857 856 856 856 855 854 854 853 852 851 851 851 850 849 847 846 845 845 845 844 843 842 841 840 840 839 838 837 836 836 835 833
823 825 826 828 831 833 835 837 838 840 841 842 844 845 846 847 848 849 850 851 852 852 853 854 855 856 856 857 857 858 858 859 859 860 860 861 861 861 862 862 862 862 862 862 862 861 861 860 859 858 857 857 856 855 855 855 854 853 853 852 851 851 850 850 849 849 849 848 846 844 843 843 843 842 841 840 839 838 837 837 836 835 835 834 833
819 821 823 824 826 828 831 833 835 836 837 839 840 841 843 844 845 846 847 848 849 850 851 851 852 853 853 854 854 854 855 855 856 857 858 859 859 859 860 860 861 861 861 861 860 860 859 859 858 857 856 855 855 854 854 853 852 852 851 851 850 850 849 849 848 848 847 847 846 844 842 841 840 840 839 838 837 837 836 835 834 834 834 833 833
816 818 820 821 822 824 827 829 831 832 833 835 836 838 840 841 843 844 845 846 847 847 848 849 849 850 850 850 850 851 852 853 853 854 855 856 857 857 858 858 859 859 859 859 859 858 858 857 856 855 854 853 852 852 851 850 850 849 849 849 848 848 848 847 847 846 846 845 845 844 843 842 840 838 838 837 836 835 834 833 833 833 833 833 832
813 815 816 818 819 820 822 824 827 828 829 831 832 834 836 838 840 841 842 843 844 845 846 846 847 847 847 847 847 848 849 850 850 851 852 852 853 854 855 855 856 857 857 857 857 857 856 855 854 853 852 851 850 850 849 848 848 847 847 847 847 847 847 846 845 845 844 844 843 842 841 841 840 838 837 837 835 834 833 832 831 832 832 832 832
809 811 813 815 816 817 819 820 821 823 825 827 828 830 832 834 836 838 840 841 841 842 843 843 844 844 844 844 845 845 845 846 847 847 848 849 849 850 851 852 852 853 854 854 854 854 854 853 852 851 850 849 848 848 848 847 846 846 846 846 846 846 846 845 844 843 842 842 841 841 839 838 838 836 835 835 835 833 832 831 831 831 831 831 831
805 807 809 811 813 814 815 816 817 819 820 822 824 825 827 829 832 834 836 837 838 839 840 840 841 841 841 842 842 841 842 842 843 844 844 845 845 846 847 848 848 849 850 850 851 851 851 851 850 848 848 847 847 846 846 846 846 845 845 845 845 844 844 843 842 842 841 841 840 839 837 836 836 834 833 832 832 831 830 830 830 831 830 830 830
802 803 805 807 809 810 812 813 814 815 816 818 819 821 823 824 827 829 831 833 834 835 836 837 837 838 838 839 839 839 839 839 840 841 841 842 842 842 843 843 844 844 845 846 846 847 847 847 846 845 845 845 845 844 845 845 844 844 843 843 843 842 842 841 840 839 839 839 838 837 835 834 834 832 830 830 829 828 828 828 829 829 829 828 828
798 800 801 803 804 806 808 809 811 812 812 814 816 817 818 820 822 824 826 828 829 830 831 832 833 834 835 835 835 835 836 836 836 837 838 839 839 839 840 840 840 840 840 840 841 842 842 842 841 841 841 841 842 842 842 843 842 842 841 841 841 840 840 839 838 837 836 836 836 835 833 831 831 830 828 827 827 825 825 826 827 827 827 826 827
796 797 798 800 801 802 804 805 807 807 808 810 812 813 815 816 819 820 822 823 825 826 827 827 828 829 830 831 832 832 832 832 832 833 834 836 836 836 837 836 837 836 836 836 836 836 837 837 836 836 836 837 838 838 839 840 839 839 839 839 839 838 837 836 835 834 833 833 833 832 830 829 829 828 827 826 825 823 823 823 824 824 824 824 825
794 794 795 796 798 799 800 801 803 803 805 806 808 810 811 813 815 816 818 819 820 821 822 822 823 824 825 826 827 827 828 828 828 829 830 832 833 833 833 833 833 833 832 832 832 831 832 832 832 832 832 832 834 834 835 836 836 837 837 836 835 835 835 834 832 831 830 830 829 829 827 826 826 826 825 824 824 822 821 820 820 821 822 822 822
794 794 794 794 795 796 796 798 799 800 801 802 804 806 807 809 811 813 814 815 816 817 817 817 818 818 819 820 821 822 823 823 824 825 826 828 829 830 830 830 830 829 828 829 829 828 827 826 827 827 827 828 829 829 830 831 831 833 833 832 832 833 832 830 829 828 828 826 826 826 824 823 823 823 823 822 821 821 820 818 817 818 819 820 820
795 793 792 792 792 793 793 794 795 797 798 798 800 801 803 805 807 809 811 812 813 813 813 813 813 813 814 815 816 817 817 818 820 821 822 823 824 825 826 827 826 824 824 826 826 825 824 823 823 823 823 824 825 825 825 826 827 828 828 828 829 829 828 827 827 827 825 822 822 823 822 820 820 821 821 820 819 818 817 815 815 816 817 817 818